Zurück zum Katalog

STARLINK-36455

AktivKommunikationVLEO
NORAD 67418·PAYLOAD·🇺🇸 United States

Gestartet Jan 12, 2026 von Cape Canaveral Space Force Station

Loading…

Nächste Überflüge (nächste 24 Stunden)

TLE

AktuellSource: CelesTrak SupGP

Epoche: Sep 14, 2026, 20:59 UTC

1 67418C 26005Q   26257.87479167  .00031001  00000+0  11232-2 0  2572
2 67418  43.0022 249.5650 0001473 263.7084 321.3554 15.27553753    12

Verfolge STARLINK-36455 in Echtzeit mit AllMySat

Download on the App Store